Theta_e
285 284 283 281 281 280 280 279 279 278 278 277 277 277 276 276 275 275 274 274 273 273 273 273 272 272 272 272 272 271 271 271 271 271 271 270 270 270 270 270 269 268 268 268 268 268 268 268 268 268 268 268 267 267 267 267 267 267 267 267 267 267 267
285 284 283 282 281 280 280 279 279 278 278 277 277 276 276 276 275 275 274 274 274 273 273 272 272 272 272 272 271 271 271 271 271 270 270 270 270 270 269 269 269 268 267 267 268 268 268 267 267 267 267 267 267 267 267 267 267 267 267 267 267 267 267
286 285 284 282 281 280 280 279 279 278 278 277 277 276 276 276 275 275 274 274 274 273 273 272 272 272 272 272 271 271 271 271 270 270 270 270 269 269 269 269 269 268 267 267 267 267 267 267 267 267 267 267 267 267 267 266 266 266 266 266 266 266 266
286 285 284 283 282 281 280 279 279 278 278 277 277 277 276 276 275 275 274 274 274 273 273 272 272 272 272 271 271 271 270 270 270 270 270 269 269 269 269 269 268 268 268 267 267 267 267 267 267 267 267 267 266 266 266 266 266 266 266 266 266 266 266
285 285 284 283 282 281 280 279 279 278 278 277 277 276 276 276 275 275 274 274 274 273 273 273 272 272 272 271 271 270 270 270 270 270 269 269 269 269 268 268 268 268 268 267 266 266 267 267 266 266 266 266 266 266 266 266 266 266 266 266 266 265 265
285 285 284 283 282 281 281 280 279 278 278 277 277 276 276 276 275 275 274 274 274 273 273 273 272 272 272 271 271 270 270 270 270 269 269 269 269 268 268 268 268 267 267 267 267 266 266 266 266 266 266 266 266 266 265 265 265 265 265 265 265 265 265
285 285 284 284 283 282 281 280 279 278 278 277 277 276 276 275 275 275 274 274 274 273 273 273 272 272 272 271 271 270 270 270 269 269 269 269 268 268 268 268 267 267 267 267 266 266 266 266 266 266 265 265 265 265 265 265 265 265 265 265 265 265 265
285 284 284 283 282 281 281 280 279 278 277 277 276 276 276 275 275 274 274 274 273 273 273 273 272 272 272 271 271 271 270 270 269 269 269 268 268 268 268 267 267 267 266 266 266 266 265 265 265 265 265 265 265 265 264 265 264 264 264 264 264 264 264
284 284 283 282 281 281 280 279 278 278 277 277 276 276 275 275 275 274 274 274 273 273 273 272 272 272 271 271 271 271 271 270 270 269 269 268 268 268 267 267 267 266 266 266 265 265 265 265 264 264 264 264 264 264 264 264 264 264 264 264 264 264 264
283 282 282 281 280 279 279 278 278 277 277 276 276 276 275 275 274 274 274 273 273 273 272 272 272 272 271 271 271 271 271 270 270 270 269 269 268 268 267 267 266 266 265 265 265 264 264 264 264 264 264 264 264 264 264 264 264 263 264 264 263 263 264
282 281 281 280 279 279 278 278 277 277 277 276 276 276 275 275 274 274 274 273 273 272 272 272 272 271 271 271 271 270 270 270 270 269 269 269 269 268 268 267 266 265 265 265 264 264 264 264 264 264 264 264 264 264 263 263 263 263 263 263 263 263 263
281 280 280 279 278 278 278 277 277 277 276 276 276 276 275 274 274 274 273 273 273 272 272 271 271 271 271 271 270 270 270 269 269 269 269 269 268 268 268 267 267 266 265 265 264 264 264 264 264 264 264 264 264 263 263 263 263 263 263 263 263 263 263
280 279 279 278 278 277 277 277 277 276 276 277 277 277 276 275 274 273 273 273 272 272 272 271 271 270 270 270 270 270 269 269 269 268 268 268 268 268 267 267 267 267 266 266 265 264 264 264 264 264 263 264 264 263 263 263 263 263 263 263 263 263 263
278 278 278 277 277 277 277 277 276 276 276 277 277 278 277 275 274 273 273 272 272 272 271 271 271 270 270 270 269 269 269 269 268 268 268 268 267 267 267 267 267 267 267 267 266 265 265 264 264 264 264 264 264 263 263 263 263 263 263 263 263 263 263
277 277 277 277 277 276 276 276 276 275 276 277 277 278 277 276 274 273 273 272 272 271 271 271 271 270 270 269 269 269 269 268 268 268 268 267 267 267 267 266 266 266 267 267 266 266 266 265 265 265 264 264 264 264 264 263 263 263 263 263 263 263 263
276 276 276 276 276 275 275 275 275 275 276 277 277 277 277 276 274 273 272 272 271 271 271 271 271 270 270 269 268 268 268 268 268 267 267 267 266 266 266 266 266 266 266 266 266 266 266 266 266 265 265 265 264 264 264 264 263 263 263 263 262 262 262
275 275 275 275 275 274 274 274 274 274 275 276 276 277 277 276 274 272 272 271 271 271 271 271 270 270 269 268 268 268 268 268 268 267 266 266 265 265 265 265 265 266 266 267 267 267 267 267 267 266 266 266 266 266 265 264 263 263 263 262 262 262 262
274 274 273 273 273 273 273 273 273 274 274 275 276 276 276 275 274 272 271 271 271 271 270 270 270 269 269 268 268 268 268 268 268 268 267 266 265 265 265 265 265 265 266 266 267 267 267 267 268 268 267 268 268 267 267 265 264 263 263 263 262 262 262
272 272 272 272 272 272 272 272 272 273 273 274 275 275 275 275 273 272 271 271 270 270 270 269 269 269 269 269 268 268 268 269 269 268 268 267 266 265 265 265 265 265 265 265 265 266 266 267 267 267 267 267 267 267 267 266 265 264 263 263 263 263 263
271 271 271 271 271 271 271 271 272 272 272 273 274 274 274 274 273 272 271 271 270 269 269 269 269 269 269 269 269 269 269 269 269 269 269 268 267 266 266 266 266 266 265 265 265 265 265 265 266 266 266 266 266 266 266 266 265 264 264 263 263 263 263
270 270 270 270 270 270 270 270 271 271 271 271 272 272 273 272 272 271 271 271 270 269 269 268 268 268 268 268 269 269 269 269 269 269 269 269 268 267 267 267 267 266 266 266 265 265 265 265 265 265 265 265 265 265 265 265 265 264 264 264 264 263 263
269 269 269 269 269 269 269 269 269 269 269 269 270 270 271 271 271 271 270 270 270 269 269 268 268 268 268 268 268 269 269 269 269 269 269 269 269 269 269 268 268 267 266 266 265 265 264 264 264 264 264 264 265 265 265 265 265 264 264 264 263 263 263
268 268 268 268 268 268 268 268 268 268 267 267 268 268 269 270 270 270 270 270 269 269 269 268 268 268 267 267 267 268 268 269 269 269 269 269 269 269 269 269 269 268 267 266 266 265 264 264 264 263 263 264 264 265 265 265 265 265 265 264 264 263 263
267 267 267 267 267 267 267 267 266 266 266 266 266 267 267 268 269 269 270 270 269 269 269 268 268 268 267 267 268 268 268 268 268 269 269 269 269 269 269 269 268 268 267 266 265 265 264 264 264 263 263 263 264 265 265 265 265 265 265 264 264 264 263
267 266 266 266 266 266 266 266 266 266 266 265 265 265 266 267 267 268 268 268 269 269 268 268 268 268 268 268 268 268 268 268 268 268 268 268 268 268 268 268 267 267 267 266 265 265 264 264 264 264 264 263 264 264 264 264 264 264 264 264 263 263 263
266 265 265 265 265 265 265 265 265 265 265 265 265 265 265 265 266 266 266 266 266 267 267 267 268 268 268 268 268 268 268 268 267 267 267 267 267 267 267 266 266 266 265 265 265 265 265 264 264 264 264 264 263 263 263 263 263 263 263 263 263 262 262
265 265 264 264 264 265 265 265 264 264 264 264 264 264 264 264 264 264 264 264 264 264 264 265 265 266 267 267 267 267 267 267 267 267 267 266 266 266 266 266 265 265 265 265 265 265 265 265 265 265 264 264 263 263 263 263 263 263 263 263 262 262 262
264 264 264 264 264 264 264 264 264 264 264 264 264 264 264 264 263 263 263 263 263 263 263 263 263 263 264 265 266 266 266 267 266 266 266 266 266 265 265 265 265 264 264 264 264 264 264 264 264 264 264 264 263 263 263 263 263 262 262 263 262 261 260
265 265 265 265 265 264 264 264 264 265 265 265 265 265 264 264 264 264 264 264 265 264 264 263 262 262 262 263 263 264 264 265 265 265 265 265 265 265 265 264 264 264 263 263 263 263 263 263 263 263 263 263 263 263 263 263 262 262 262 261 261 260 260
266 266 266 266 266 266 265 265 266 266 266 266 266 266 266 266 266 266 266 266 266 264 263 262 262 261 261 262 262 262 262 263 263 263 263 263 264 264 263 263 263 263 263 263 263 263 263 262 262 262 262 262 262 262 262 262 262 261 261 260 259 258 259
266 266 266 266 266 266 266 266 266 266 266 267 267 267 267 267 267 267 266 266 265 264 263 262 262 262 262 262 261 261 262 262 262 262 262 262 262 262 262 262 262 262 262 262 262 262 262 262 262 261 261 261 261 262 261 261 260 260 260 259 259 258 258
264 265 265 264 264 264 264 264 264 264 265 265 266 266 265 265 265 265 265 265 264 264 263 263 263 262 262 262 262 261 261 261 261 261 261 261 261 261 261 261 262 262 262 261 261 261 261 261 261 261 261 261 261 261 260 260 259 259 258 258 258 257 257
262 262 262 262 262 262 263 263 263 263 263 263 263 263 263 263 263 263 263 264 263 263 263 263 263 263 263 263 262 262 262 261 261 261 261 261 261 261 261 261 261 261 261 261 261 261 261 261 261 261 260 260 260 259 259 258 258 258 257 257 256 256 256
261 260 260 260 260 260 261 261 261 261 261 261 261 262 262 262 262 263 262 262 262 261 261 261 261 261 262 262 262 262 262 262 261 261 261 261 261 261 261 261 261 261 261 261 261 261 260 260 260 260 260 259 259 258 258 258 257 257 256 256 255 255 255
260 260 259 259 259 259 259 259 259 259 259 260 261 262 262 261 260 259 259 259 259 259 259 259 259 259 260 260 261 261 261 262 262 262 261 261 261 261 261 261 261 261 261 261 261 260 260 260 260 260 259 259 258 258 257 257 257 257 256 255 255 254 254
258 259 258 258 258 258 258 258 258 258 259 260 261 261 259 258 257 257 257 257 257 257 257 257 258 258 258 259 259 259 260 260 261 261 261 261 261 261 261 261 261 261 261 260 260 260 260 260 259 259 259 258 258 257 257 257 257 256 255 255 254 254 253
Wind_Speed
42 43 45 46 47 48 48 48 48 47 46 46 46 45 44 43 42 42 41 39 38 38 38 38 37 36 35 33 32 33 33 32 32 31 31 30 30 30 29 28 24 16 13 14 15 17 19 19 19 20 21 23 24 24 23 23 24 24 24 24 25 26 27
43 42 43 45 46 47 47 48 48 47 47 47 47 45 44 43 42 42 41 38 38 38 37 37 37 36 35 34 34 33 33 33 32 31 32 32 31 31 30 30 28 22 17 16 18 19 21 20 20 21 22 22 23 22 21 21 22 22 23 25 26 27 28
43 42 42 43 45 46 46 47 47 47 47 48 47 46 44 43 43 42 41 40 39 38 37 36 37 37 36 34 34 34 33 33 33 33 33 33 32 32 31 31 30 27 21 18 19 20 20 21 20 21 21 21 21 21 21 23 23 23 24 26 26 26 27
41 41 41 42 43 44 45 46 46 46 47 48 47 46 45 44 43 43 42 42 41 39 38 38 37 37 36 34 34 34 33 33 33 33 33 33 33 32 32 31 31 30 26 22 20 19 21 21 21 21 21 21 22 22 23 25 25 25 26 27 28 28 29
39 40 40 41 42 43 44 45 46 46 46 47 46 45 45 44 43 43 42 42 40 39 39 38 38 36 35 34 35 34 34 34 35 34 34 34 33 33 32 31 30 30 29 25 22 20 20 20 21 22 22 22 22 22 23 23 24 25 26 27 28 29 30
38 39 40 41 42 42 43 44 44 45 45 45 44 43 43 42 42 42 41 40 39 39 39 39 38 37 35 36 36 35 35 35 35 35 35 34 34 34 32 31 30 30 29 28 25 22 20 20 21 23 22 21 21 22 22 21 23 26 26 26 28 29 29
36 37 39 40 40 41 42 42 42 43 43 42 42 42 41 41 41 40 39 39 38 38 38 38 38 37 37 38 38 38 37 36 36 36 36 36 35 33 32 31 31 30 29 27 25 23 22 23 24 24 23 21 21 22 23 22 23 24 24 25 27 29 27
35 36 37 37 38 39 39 40 40 40 40 40 40 40 40 39 39 38 37 37 37 37 37 37 37 37 38 39 40 40 39 38 38 37 37 37 35 34 33 32 31 30 29 27 25 24 23 23 24 25 24 22 20 20 23 23 22 24 24 24 26 27 26
33 33 34 35 35 36 36 36 37 38 38 38 38 38 38 38 38 37 37 36 35 35 36 36 36 37 38 39 40 41 41 41 41 40 39 37 36 35 34 33 31 30 29 27 25 23 22 21 22 23 23 23 22 22 23 23 22 24 25 23 25 27 26
29 30 31 32 32 32 33 34 35 36 37 38 38 38 37 37 37 37 36 35 34 34 34 35 36 37 37 38 39 40 41 42 42 42 41 40 38 38 37 34 31 30 29 27 25 24 22 20 21 24 25 26 26 25 24 23 22 24 25 23 22 25 26
24 26 28 29 29 30 31 32 34 34 34 36 37 38 37 36 36 36 35 34 34 34 34 35 35 36 36 37 38 39 40 41 42 42 42 41 40 40 39 37 34 32 30 28 26 25 24 22 23 26 27 27 27 26 25 24 23 23 23 21 17 18 21
22 24 25 26 27 28 30 31 32 32 32 33 33 35 37 36 35 34 34 34 34 34 34 34 34 34 34 36 37 38 38 38 39 40 40 40 41 40 41 40 38 36 34 32 29 27 26 27 27 28 27 27 28 27 25 24 24 23 23 22 19 18 20
20 22 23 24 26 27 29 30 30 30 30 29 29 30 33 36 35 34 34 34 34 34 33 32 32 33 34 35 36 37 36 35 35 35 36 37 38 39 40 40 39 38 36 36 34 31 31 32 31 29 28 29 28 27 25 24 24 25 24 23 24 25 27
20 21 22 24 25 26 28 28 29 29 26 26 26 28 31 34 35 34 34 34 34 34 34 33 33 33 34 35 36 36 35 35 35 34 34 34 34 35 37 38 37 36 35 36 36 36 37 37 34 32 33 31 29 29 29 27 26 26 26 28 30 32 32
20 21 22 23 24 25 26 27 28 27 24 24 26 28 30 32 33 34 33 33 34 34 34 34 34 34 34 35 36 37 36 36 36 35 35 34 34 34 35 36 37 37 36 37 37 37 38 37 35 35 35 34 32 33 33 33 32 31 30 31 32 31 31
20 20 21 22 22 23 24 25 25 23 22 23 24 26 28 28 30 33 33 33 34 35 35 35 35 35 34 35 35 36 36 37 37 36 36 35 36 36 36 37 38 36 35 37 39 39 38 36 35 35 36 36 36 36 37 36 34 32 30 28 25 24 28
19 19 19 20 20 21 22 23 22 20 20 21 23 24 24 22 24 29 32 32 33 34 34 34 35 36 36 35 35 36 36 35 34 35 36 36 36 36 37 39 40 37 35 36 38 39 39 38 37 37 38 38 38 39 40 37 33 30 29 25 19 18 23
16 16 17 17 18 19 20 21 21 19 18 19 21 22 22 18 17 22 26 28 30 31 33 34 35 36 37 36 36 36 35 32 32 34 35 36 36 36 35 36 38 38 39 37 36 37 37 37 38 38 38 37 36 36 36 36 35 33 31 25 20 18 21
14 14 15 15 16 17 17 19 19 18 17 18 18 19 20 18 16 17 20 23 25 28 30 32 34 36 38 38 37 35 32 29 31 34 34 34 34 34 35 36 36 37 39 39 38 38 38 37 37 36 34 34 33 33 32 30 31 30 29 27 25 23 18
12 12 13 13 14 15 16 17 18 19 18 18 18 18 19 20 20 20 20 22 23 25 27 29 32 34 36 36 34 32 30 29 32 35 35 34 33 33 34 36 36 37 38 38 39 39 40 39 38 36 35 35 35 34 34 31 29 26 26 27 27 25 20
10 10 11 12 12 13 15 16 17 18 19 19 18 19 21 22 23 22 23 24 24 24 25 27 29 31 32 31 31 31 31 32 35 37 37 36 35 36 35 34 34 36 37 37 38 38 38 38 37 37 37 37 37 36 35 34 33 30 28 28 27 26 23
9 9 10 11 12 13 15 16 17 18 19 19 19 20 22 24 25 23 23 24 25 26 27 28 29 30 31 30 30 31 33 34 35 36 36 34 35 37 36 35 35 35 35 35 36 36 36 35 35 35 36 37 38 37 35 34 33 31 30 30 31 30 28
9 10 11 12 14 15 17 18 18 19 20 21 21 21 22 23 24 24 24 25 25 26 28 29 30 31 30 29 29 30 32 33 34 35 34 32 31 31 33 34 34 33 33 34 34 33 33 34 33 33 34 35 36 37 36 34 32 31 30 31 31 32 33
11 11 12 14 16 17 18 19 20 20 21 22 23 22 22 23 24 24 25 27 26 26 27 30 33 33 30 28 29 31 32 33 34 34 32 31 31 30 29 28 25 23 25 28 29 29 30 32 33 33 33 35 36 36 35 34 32 31 31 30 29 30 30
13 13 14 15 17 18 19 20 20 21 22 22 23 23 22 22 23 23 24 26 26 24 23 25 29 32 32 31 30 31 32 33 34 33 31 30 29 27 24 22 20 17 17 20 23 25 27 30 32 33 34 34 34 33 33 32 31 30 30 29 27 27 27
15 15 15 16 17 19 20 21 21 22 22 22 22 23 23 24 24 24 24 25 26 26 25 23 23 25 26 28 28 28 30 31 32 32 32 30 29 26 22 21 20 19 17 18 20 22 24 27 30 32 32 31 29 30 31 31 30 29 29 28 27 27 28
16 16 16 17 18 20 21 21 22 22 23 23 23 24 25 25 26 26 26 27 28 27 27 28 28 26 24 24 24 26 28 28 29 29 30 30 30 29 27 25 23 22 21 21 22 23 24 25 26 27 28 27 27 29 31 31 31 30 29 30 29 27 28
17 18 18 18 19 20 20 21 22 23 23 24 24 25 26 26 27 28 28 29 29 28 27 28 28 28 26 25 25 25 25 25 25 25 26 27 28 28 28 27 25 23 23 24 25 25 25 24 24 25 26 27 27 29 30 31 31 31 31 31 28 25 25
19 20 21 21 22 21 20 20 22 24 24 24 23 24 25 25 26 27 27 27 27 26 27 26 26 25 24 24 25 25 25 25 25 25 25 26 27 27 27 27 26 25 25 26 27 26 26 25 25 25 27 27 28 29 29 29 30 30 29 28 27 25 25
18 20 20 20 21 20 19 21 23 24 24 23 23 23 25 26 27 28 29 30 30 28 27 24 22 22 22 23 23 23 24 25 26 26 27 27 28 28 28 28 28 28 28 28 28 28 28 28 27 27 27 27 28 28 27 27 28 28 27 26 25 25 25
17 18 17 17 18 18 18 18 20 21 21 21 22 23 22 22 21 21 21 23 25 25 24 22 20 20 21 22 23 24 25 26 26 26 27 27 28 29 29 29 30 31 31 30 30 30 30 29 28 28 27 28 29 29 28 27 26 26 26 26 25 24 25
17 16 16 16 17 18 18 18 18 19 20 20 22 22 22 21 20 20 20 21 20 18 18 19 19 18 19 20 22 24 25 26 26 26 27 27 26 27 29 30 31 33 32 31 30 30 30 30 29 29 29 29 29 28 27 26 25 25 25 25 25 24 25
14 15 17 18 18 18 18 19 19 20 20 21 21 22 22 22 21 21 21 21 20 17 15 15 16 17 18 19 21 23 25 25 26 26 27 27 27 27 29 31 32 32 31 31 31 31 31 30 30 30 29 28 28 27 26 25 25 25 25 23 22 23 24
22 21 21 22 21 20 19 20 20 20 20 21 21 21 21 20 19 17 16 17 17 18 17 17 16 16 17 17 18 20 21 23 25 26 27 28 28 29 30 30 30 30 30 31 32 31 30 30 30 30 28 27 26 25 24 23 24 24 23 23 22 22 22
28 28 27 25 23 21 20 20 20 20 20 21 20 20 20 19 17 16 17 19 20 20 19 19 18 18 18 18 18 19 19 20 21 22 23 24 25 27 28 28 28 29 30 31 31 31 31 31 30 30 30 28 26 24 23 23 23 24 25 24 23 22 21
25 28 28 27 24 22 22 22 21 21 21 21 20 20 20 20 18 17 18 20 21 21 20 18 17 17 17 17 17 18 19 20 21 21 22 22 23 24 25 25 27 29 30 31 31 31 31 30 30 30 29 27 26 25 24 24 24 25 25 25 23 22 21
Wind_Direction
235 232 228 225 223 222 221 221 220 219 218 218 219 220 220 219 218 218 219 219 218 217 217 216 216 216 215 214 214 215 215 217 218 219 220 221 223 223 224 223 221 228 244 243 238 235 234 238 243 248 255 262 267 267 263 259 260 263 266 269 269 270 271
237 233 230 226 224 222 221 220 219 218 217 217 218 218 218 218 217 217 218 217 217 216 215 215 215 215 214 213 214 215 215 217 218 219 221 222 223 224 225 224 224 229 239 241 238 239 241 244 247 253 258 261 261 262 263 263 262 263 265 267 268 270 273
238 234 230 227 224 222 220 220 219 218 217 217 217 217 217 217 216 216 216 215 216 215 213 213 214 215 213 212 214 216 216 217 218 219 221 222 223 225 226 226 226 229 235 241 240 238 240 243 247 252 255 254 254 256 259 261 262 265 266 266 267 270 272
237 234 231 227 224 222 221 220 219 218 218 218 218 217 217 216 216 216 216 216 215 213 212 212 213 213 213 211 213 215 216 217 218 219 221 222 223 224 226 227 227 229 233 239 241 238 240 245 248 250 251 250 253 257 259 262 264 265 265 266 267 268 270
236 233 230 228 226 223 221 221 219 218 218 218 218 218 217 217 216 217 217 217 216 214 212 213 213 213 211 210 212 214 215 216 218 219 220 221 222 223 225 227 228 230 233 236 239 238 240 245 247 248 249 250 254 257 259 260 262 263 264 266 267 268 270
235 232 230 229 227 225 223 222 220 219 219 218 217 217 217 217 217 217 217 217 216 215 215 215 215 214 212 211 212 213 214 216 217 218 219 220 222 223 224 226 228 230 232 234 238 238 238 240 244 247 248 247 249 253 256 258 262 264 264 266 268 269 271
235 233 232 230 228 226 225 223 221 220 219 217 217 216 216 216 216 217 217 217 217 216 217 216 216 215 213 213 214 214 215 215 216 217 219 220 222 222 223 225 226 227 228 231 234 236 237 238 242 246 248 248 248 251 255 258 262 264 264 264 267 269 270
237 235 233 231 228 227 225 222 220 219 217 216 215 215 215 215 215 216 216 217 217 217 217 217 217 216 216 216 217 218 218 218 217 217 219 221 222 222 223 224 225 225 226 229 232 234 235 237 241 244 247 249 246 245 249 251 254 260 263 263 265 267 268
238 235 232 230 228 225 223 221 220 218 217 215 214 214 215 215 215 215 216 216 217 218 218 218 217 218 218 219 220 222 223 223 222 221 221 222 222 222 224 226 226 226 226 228 231 234 233 233 238 240 242 244 241 238 245 250 252 257 262 264 266 267 267
237 234 232 230 227 225 223 222 221 220 219 217 215 214 214 215 215 216 216 216 216 216 217 218 218 219 220 221 223 225 226 227 227 227 227 227 226 225 225 224 225 226 226 227 229 231 230 230 235 237 237 241 243 244 248 249 249 255 261 264 266 268 268
238 236 234 232 229 227 225 225 225 223 221 220 219 217 216 215 216 216 216 216 215 215 216 216 218 219 220 222 224 226 228 229 229 229 230 231 232 232 230 227 225 224 224 225 229 232 230 229 236 239 237 240 246 247 246 246 246 250 255 257 258 265 268
245 242 239 235 232 230 229 229 228 226 224 221 219 219 219 217 216 216 216 216 215 215 215 215 217 218 219 221 223 225 226 227 229 230 232 233 234 235 235 234 231 230 228 226 228 233 232 231 237 241 238 238 242 245 245 245 244 244 247 250 251 255 262
250 246 242 239 236 234 234 233 231 229 226 223 218 217 219 219 217 216 216 216 216 216 215 215 215 216 219 221 223 224 224 224 226 229 232 234 235 236 237 236 235 236 236 234 233 234 236 237 238 240 241 239 240 242 242 242 241 241 242 245 248 251 256
253 250 247 244 241 240 239 237 236 232 227 223 222 221 221 219 217 217 217 217 216 216 216 216 216 217 220 222 222 222 223 223 225 227 230 232 233 234 236 236 235 235 237 239 238 238 241 243 241 242 245 245 242 241 241 240 240 240 239 243 248 253 256
259 255 252 249 246 244 242 241 239 235 229 227 228 228 225 219 213 214 218 218 218 218 218 219 220 221 223 224 224 224 224 225 228 230 231 233 233 234 234 234 234 234 235 238 239 241 244 246 245 246 249 249 246 244 244 245 246 245 244 247 252 255 257
261 258 255 252 248 245 243 243 241 235 230 231 233 231 229 221 212 211 216 219 220 221 223 224 225 225 225 225 226 226 227 229 231 232 234 236 237 238 238 237 237 236 237 239 241 242 244 246 247 248 250 250 248 247 247 247 247 246 244 245 250 253 253
262 259 256 253 249 245 243 243 241 235 231 234 235 232 230 225 214 211 214 218 221 223 226 227 228 228 227 227 228 230 231 232 233 235 236 237 239 240 240 241 242 242 242 244 245 246 247 247 247 248 250 250 248 247 245 239 236 236 235 235 240 245 247
263 260 256 254 251 246 245 245 243 238 234 237 238 234 231 232 223 213 214 218 222 225 228 229 230 230 228 228 231 234 234 233 233 235 235 235 236 237 238 239 241 243 245 246 248 251 252 251 250 251 253 253 252 250 243 232 228 231 230 228 232 238 245
263 259 256 255 253 248 246 248 247 242 238 241 244 240 240 245 244 231 223 222 223 225 227 228 230 231 231 231 233 233 233 233 232 233 233 232 230 230 233 237 238 240 243 245 246 249 251 251 252 253 255 255 254 253 248 238 235 233 227 226 233 237 240
260 258 256 255 254 252 250 251 253 250 245 245 249 251 254 257 256 249 242 237 231 227 225 225 226 228 229 230 231 230 232 234 233 232 232 231 227 226 232 237 238 238 241 243 244 247 249 250 252 253 255 257 256 255 254 252 249 243 232 229 232 235 234
256 254 255 256 256 256 255 254 256 256 252 251 254 258 259 259 258 255 250 246 241 235 230 227 226 225 226 227 229 233 236 238 240 238 235 232 231 233 235 237 237 238 238 239 242 245 247 248 249 251 253 255 257 258 257 257 256 253 246 238 233 233 235
256 256 257 260 260 261 262 262 262 263 262 260 260 259 258 258 258 257 253 248 244 240 238 235 233 233 233 232 235 241 243 245 247 247 244 239 238 240 241 239 237 238 236 234 236 240 242 244 246 247 248 250 253 255 256 257 257 256 252 247 242 240 239
261 261 262 263 262 264 266 267 267 267 267 267 265 262 261 261 260 258 255 250 246 243 242 242 241 241 240 238 239 243 245 246 248 249 250 249 247 246 247 246 243 239 233 229 230 232 235 239 241 242 243 244 247 251 254 255 256 255 252 251 249 247 245
271 266 264 266 267 268 270 271 271 272 272 272 272 269 266 266 264 262 260 257 254 250 245 243 243 243 241 240 242 245 245 246 248 248 249 252 253 253 254 254 252 244 233 226 224 225 229 235 237 239 240 241 244 250 254 255 255 255 255 255 256 255 253
280 275 271 271 271 275 279 280 279 279 278 278 278 276 272 270 268 266 265 266 266 264 258 250 246 244 242 241 244 247 247 248 249 250 251 254 257 259 260 258 258 254 238 225 222 224 228 232 236 239 242 244 245 247 250 251 252 254 256 257 258 256 255
286 283 279 277 277 281 285 286 284 283 282 281 279 277 275 273 272 271 269 268 268 269 268 265 259 253 247 244 245 247 247 248 249 251 253 254 256 257 258 255 252 249 241 231 227 227 228 231 237 242 245 247 245 242 243 245 247 248 250 251 250 248 249
293 288 284 282 284 286 287 288 286 284 283 281 278 276 276 275 274 274 273 271 270 269 268 265 263 261 257 253 251 250 248 247 246 246 249 251 252 253 253 251 249 247 245 244 242 239 236 236 239 242 244 245 240 237 239 241 241 240 242 244 242 240 242
297 294 291 289 288 289 288 286 285 285 287 286 282 279 277 275 274 274 272 272 272 272 272 268 265 262 258 255 254 253 251 249 246 244 245 246 248 249 249 248 248 247 247 248 248 246 244 242 239 238 241 241 238 236 236 235 233 232 234 235 231 227 233
295 293 292 288 284 281 276 274 281 290 294 289 283 278 274 272 273 274 273 274 275 272 269 267 264 260 256 251 249 248 247 247 247 246 245 245 245 245 245 243 242 241 243 245 245 243 241 239 237 237 237 236 234 232 231 228 225 224 224 223 220 220 227
297 298 297 294 291 288 281 279 289 297 294 285 280 277 273 270 270 269 269 272 272 266 260 257 255 254 251 246 243 242 242 242 243 243 243 243 243 242 241 240 239 240 241 243 243 242 241 238 236 235 232 229 228 229 228 224 222 221 219 216 215 219 228
309 309 310 309 311 313 309 304 305 305 297 290 291 291 291 290 288 282 277 275 269 260 252 250 249 248 247 244 241 239 239 240 239 239 239 240 240 239 238 238 239 240 241 240 240 240 239 237 234 232 230 228 226 227 227 225 222 220 220 219 219 222 230
318 321 324 324 324 325 322 318 317 315 309 304 304 307 312 315 311 303 298 293 286 271 256 250 249 248 246 243 241 241 242 241 239 239 238 238 238 238 237 236 238 240 240 237 235 235 235 233 232 231 230 228 226 225 224 222 219 218 219 222 225 228 234
329 331 333 334 332 329 326 323 322 320 317 315 315 316 318 315 309 304 301 298 296 291 276 263 258 255 252 248 244 243 244 242 240 240 239 237 236 237 237 238 240 240 238 235 234 233 232 231 231 230 228 226 224 221 219 218 217 218 220 222 226 230 235
335 334 334 334 332 330 328 326 325 323 320 318 316 313 314 313 311 310 310 307 305 302 295 288 282 274 268 264 259 254 251 246 243 241 239 238 238 239 240 241 240 236 234 233 233 232 230 230 230 228 225 222 220 217 216 217 218 220 221 221 224 229 233
327 331 332 333 333 332 332 330 328 325 322 318 313 312 321 331 333 330 324 319 316 312 306 300 295 289 283 278 273 269 265 259 254 248 243 240 239 239 239 238 235 232 232 231 230 229 228 227 226 225 223 221 218 215 215 218 221 223 224 224 225 227 231
320 326 329 332 334 336 335 334 331 327 323 320 318 322 332 338 337 331 325 319 316 314 312 308 305 301 297 293 288 283 278 272 267 263 258 253 249 245 242 238 234 231 231 230 228 227 226 224 222 222 221 218 217 218 220 223 225 225 225 225 224 226 231